Time,TemperatureF,DewpointF,PressureIn,WindDirection,WindDirectionDegrees,WindSpeedMPH,WindSpeedGustMPH,Humidity,HourlyPrecipIn,Conditions,Clouds,dailyrainin,SoftwareType,DateUTC
2013-06-12 00:01:00,67.4,63.4,29.84,SW,228,0.0,0.0,87,0.00,,---,0.00,VWS V13.01,2013-06-12 04:01:00,
2013-06-12 00:02:00,67.4,63.4,29.84,SW,228,0.0,0.0,87,0.00,,---,0.00,VWS V13.01,2013-06-12 04:02:00,
2013-06-12 00:07:00,67.1,63.1,29.84,SW,228,0.0,0.0,87,0.00,,---,0.00,VWS V13.01,2013-06-12 04:07:00,
2013-06-12 00:12:00,66.9,62.9,29.84,SW,227,1.0,3.0,87,0.00,,---,0.00,VWS V13.01,2013-06-12 04:12:00,
2013-06-12 00:17:00,66.8,62.8,29.85,SSW,202,0.0,3.0,87,0.00,,---,0.00,VWS V13.01,2013-06-12 04:17:00,
2013-06-12 00:22:00,66.8,62.8,29.84,SSW,202,0.0,3.0,87,0.00,,---,0.00,VWS V13.01,2013-06-12 04:22:00,
2013-06-12 00:27:00,66.6,62.6,29.84,SSW,202,0.0,3.0,87,0.00,,---,0.00,VWS V13.01,2013-06-12 04:27:00,
2013-06-12 00:32:00,66.4,62.4,29.84,SSW,202,0.0,1.0,87,0.00,,---,0.00,VWS V13.01,2013-06-12 04:32:00,
2013-06-12 00:37:00,66.3,62.3,29.84,SSW,202,0.0,1.0,87,0.00,,---,0.00,VWS V13.01,2013-06-12 04:37:00,
2013-06-12 00:42:00,66.1,62.5,29.85,SSW,202,0.0,1.0,88,0.00,,---,0.00,VWS V13.01,2013-06-12 04:42:00,
2013-06-12 00:47:00,66.0,62.7,29.85,SSW,202,0.0,1.0,89,0.00,,---,0.00,VWS V13.01,2013-06-12 04:47:00,
2013-06-12 00:52:00,65.9,62.6,29.85,SSW,202,0.0,1.0,89,0.00,,---,0.00,VWS V13.01,2013-06-12 04:52:00,
2013-06-12 00:57:00,65.9,62.6,29.85,SSW,202,0.0,2.0,89,0.00,,---,0.00,VWS V13.01,2013-06-12 04:57:00,
2013-06-12 01:02:00,65.9,62.9,29.85,SSW,202,0.0,0.0,90,0.00,,---,0.00,VWS V13.01,2013-06-12 05:02:00,
2013-06-12 01:07:00,65.9,62.9,29.85,SSW,202,0.0,1.0,90,0.00,,---,0.00,VWS V13.01,2013-06-12 05:07:00,
2013-06-12 01:12:00,65.8,62.8,29.85,SSW,202,0.0,2.0,90,0.00,,---,0.00,VWS V13.01,2013-06-12 05:12:00,
2013-06-12 01:17:00,65.7,62.4,29.84,SSW,202,0.0,2.0,89,0.00,,---,0.00,VWS V13.01,2013-06-12 05:17:00,
2013-06-12 01:22:00,65.6,62.6,29.84,SSW,202,0.0,2.0,90,0.00,,---,0.00,VWS V13.01,2013-06-12 05:22:00,
2013-06-12 01:27:00,65.5,62.5,29.85,SSW,202,0.0,2.0,90,0.00,,---,0.00,VWS V13.01,2013-06-12 05:27:00,
2013-06-12 01:32:00,65.3,62.3,29.85,SSW,202,0.0,2.0,90,0.00,,---,0.00,VWS V13.01,2013-06-12 05:32:00,
2013-06-12 01:37:00,65.3,62.3,29.85,SSW,202,0.0,2.0,90,0.00,,---,0.00,VWS V13.01,2013-06-12 05:37:00,
2013-06-12 01:42:00,65.3,62.6,29.85,SSW,202,0.0,2.0,91,0.00,,---,0.00,VWS V13.01,2013-06-12 05:42:00,
2013-06-12 01:47:00,65.3,62.6,29.85,SSW,202,0.0,2.0,91,0.00,,---,0.00,VWS V13.01,2013-06-12 05:47:00,
2013-06-12 01:52:00,65.3,62.6,29.84,SSW,202,0.0,2.0,91,0.00,,---,0.00,VWS V13.01,2013-06-12 05:52:00,
2013-06-12 01:57:00,65.3,62.6,29.84,SSW,202,0.0,2.0,91,0.00,,---,0.00,VWS V13.01,2013-06-12 05:57:00,
2013-06-12 02:02:00,65.3,62.6,29.84,SSW,202,2.0,2.0,91,0.00,,---,0.00,VWS V13.01,2013-06-12 06:02:00,
2013-06-12 02:07:00,65.3,62.6,29.84,SSW,199,0.0,3.0,91,0.00,,---,0.00,VWS V13.01,2013-06-12 06:07:00,
2013-06-12 02:12:00,65.3,62.6,29.84,SSW,199,0.0,3.0,91,0.00,,---,0.00,VWS V13.01,2013-06-12 06:12:00,
2013-06-12 02:17:00,65.3,62.6,29.84,SSW,199,0.0,3.0,91,0.00,,---,0.00,VWS V13.01,2013-06-12 06:17:00,
2013-06-12 02:22:00,65.3,62.6,29.84,SSW,199,1.0,3.0,91,0.00,,---,0.00,VWS V13.01,2013-06-12 06:22:00,
2013-06-12 02:27:00,65.4,62.7,29.84,SSW,199,0.0,3.0,91,0.00,,---,0.00,VWS V13.01,2013-06-12 06:27:00,
2013-06-12 02:32:00,65.5,62.8,29.84,SSW,199,0.0,1.0,91,0.00,,---,0.00,VWS V13.01,2013-06-12 06:32:00,
2013-06-12 02:37:00,65.5,62.8,29.84,SSW,199,1.0,2.0,91,0.00,,---,0.00,VWS V13.01,2013-06-12 06:37:00,
2013-06-12 02:42:00,65.5,62.8,29.84,SSW,199,0.0,2.0,91,0.00,,---,0.00,VWS V13.01,2013-06-12 06:42:00,
2013-06-12 02:47:00,65.5,62.8,29.84,SSW,199,0.0,3.0,91,0.00,,---,0.00,VWS V13.01,2013-06-12 06:47:00,
2013-06-12 02:52:00,65.5,62.8,29.84,SSW,199,1.0,3.0,91,0.00,,---,0.00,VWS V13.01,2013-06-12 06:52:00,
2013-06-12 02:57:00,65.5,62.8,29.84,SSW,199,0.0,3.0,91,0.00,,---,0.00,VWS V13.01,2013-06-12 06:57:00,
2013-06-12 03:02:00,65.5,62.5,29.84,SSW,199,0.0,1.0,90,0.00,,---,0.00,VWS V13.01,2013-06-12 07:02:00,
2013-06-12 03:07:00,65.4,62.7,29.83,SSW,199,0.0,2.0,91,0.00,,---,0.00,VWS V13.01,2013-06-12 07:07:00,
2013-06-12 03:12:00,65.4,62.7,29.83,SSW,199,2.0,2.0,91,0.00,,---,0.00,VWS V13.01,2013-06-12 07:12:00,
2013-06-12 03:17:00,65.4,62.7,29.84,SSW,199,2.0,3.0,91,0.00,,---,0.00,VWS V13.01,2013-06-12 07:17:00,
2013-06-12 03:22:00,65.5,62.8,29.83,SSW,199,1.0,3.0,91,0.00,,---,0.00,VWS V13.01,2013-06-12 07:22:00,
2013-06-12 03:27:00,65.4,62.7,29.83,SSW,199,2.0,3.0,91,0.00,,---,0.00,VWS V13.01,2013-06-12 07:27:00,
2013-06-12 03:32:00,65.4,62.7,29.83,SSW,199,1.0,4.0,91,0.00,,---,0.00,VWS V13.01,2013-06-12 07:32:00,
2013-06-12 03:37:00,65.3,62.6,29.83,SSW,213,3.0,4.0,91,0.00,,---,0.00,VWS V13.01,2013-06-12 07:37:00,
2013-06-12 03:42:00,65.3,62.6,29.83,SSW,201,4.0,7.0,91,0.00,,---,0.00,VWS V13.01,2013-06-12 07:42:00,
2013-06-12 03:47:00,65.4,63.0,29.83,SSW,207,4.0,7.0,92,0.00,,---,0.00,VWS V13.01,2013-06-12 07:47:00,
2013-06-12 03:52:00,65.4,63.0,29.83,SSW,205,4.0,7.0,92,0.00,,---,0.00,VWS V13.01,2013-06-12 07:52:00,
2013-06-12 03:57:00,65.4,62.7,29.83,SSW,205,0.0,7.0,91,0.00,,---,0.00,VWS V13.01,2013-06-12 07:57:00,
2013-06-12 04:02:00,65.4,62.7,29.83,SSW,205,2.0,4.0,91,0.00,,---,0.00,VWS V13.01,2013-06-12 08:02:00,
2013-06-12 04:07:00,65.5,62.8,29.83,SSW,205,2.0,4.0,91,0.00,,---,0.00,VWS V13.01,2013-06-12 08:07:00,
2013-06-12 04:12:00,65.5,63.1,29.83,SSW,210,2.0,4.0,92,0.00,,---,0.00,VWS V13.01,2013-06-12 08:12:00,
2013-06-12 04:17:00,65.7,63.3,29.83,SSW,213,3.0,6.0,92,0.00,,---,0.00,VWS V13.01,2013-06-12 08:17:00,
2013-06-12 04:22:00,65.8,63.1,29.83,SW,226,3.0,6.0,91,0.00,,---,0.00,VWS V13.01,2013-06-12 08:22:00,
2013-06-12 04:27:00,65.8,63.1,29.83,SW,228,4.0,6.0,91,0.00,,---,0.00,VWS V13.01,2013-06-12 08:27:00,
2013-06-12 04:32:00,65.9,63.2,29.82,SSW,195,1.0,4.0,91,0.00,,---,0.00,VWS V13.01,2013-06-12 08:32:00,
2013-06-12 04:37:00,65.8,63.1,29.83,SW,231,4.0,5.0,91,0.00,,---,0.00,VWS V13.01,2013-06-12 08:37:00,
2013-06-12 04:42:00,65.8,63.1,29.83,South,191,2.0,6.0,91,0.00,,---,0.00,VWS V13.01,2013-06-12 08:42:00,
2013-06-12 04:47:00,65.8,63.1,29.83,SW,229,1.0,6.0,91,0.00,,---,0.00,VWS V13.01,2013-06-12 08:47:00,
2013-06-12 04:52:00,65.7,63.0,29.83,SSW,206,2.0,6.0,91,0.00,,---,0.00,VWS V13.01,2013-06-12 08:52:00,
2013-06-12 04:57:00,65.6,62.9,29.83,SSW,205,0.0,6.0,91,0.00,,---,0.00,VWS V13.01,2013-06-12 08:57:00,
2013-06-12 05:02:00,65.4,62.7,29.83,SSW,205,1.0,1.0,91,0.00,,---,0.00,VWS V13.01,2013-06-12 09:02:00,
2013-06-12 05:07:00,65.2,62.5,29.83,SSW,205,0.0,2.0,91,0.00,,---,0.00,VWS V13.01,2013-06-12 09:07:00,
2013-06-12 05:12:00,65.0,62.3,29.83,SSW,205,0.0,3.0,91,0.00,,---,0.00,VWS V13.01,2013-06-12 09:12:00,
2013-06-12 05:17:00,64.8,62.1,29.83,SSW,206,0.0,3.0,91,0.00,,---,0.00,VWS V13.01,2013-06-12 09:17:00,
2013-06-12 05:22:00,64.7,62.3,29.83,SSW,206,1.0,3.0,92,0.00,,---,0.00,VWS V13.01,2013-06-12 09:22:00,
2013-06-12 05:27:00,64.6,62.2,29.84,SSW,206,0.0,3.0,92,0.00,,---,0.00,VWS V13.01,2013-06-12 09:27:00,
2013-06-12 05:32:00,64.4,62.0,29.84,SSW,195,0.0,3.0,92,0.00,,---,0.00,VWS V13.01,2013-06-12 09:32:00,
2013-06-12 05:37:00,64.3,61.9,29.84,SSW,195,0.0,3.0,92,0.00,,---,0.00,VWS V13.01,2013-06-12 09:37:00,
2013-06-12 05:42:00,64.2,62.1,29.84,SW,215,1.0,3.0,93,0.00,,---,0.00,VWS V13.01,2013-06-12 09:42:00,
2013-06-12 05:47:00,64.3,62.2,29.84,SW,215,2.0,3.0,93,0.00,,---,0.00,VWS V13.01,2013-06-12 09:47:00,
2013-06-12 05:52:00,64.4,62.3,29.84,SSW,212,3.0,6.0,93,0.00,,---,0.00,VWS V13.01,2013-06-12 09:52:00,
2013-06-12 05:57:00,64.5,62.4,29.84,SSW,197,5.0,7.0,93,0.00,,---,0.00,VWS V13.01,2013-06-12 09:57:00,
2013-06-12 06:02:00,64.7,62.6,29.84,SSW,198,4.0,6.0,93,0.00,,---,0.00,VWS V13.01,2013-06-12 10:02:00,
2013-06-12 06:07:00,64.8,62.7,29.84,SSW,193,4.0,7.0,93,0.00,,---,0.00,VWS V13.01,2013-06-12 10:07:00,
2013-06-12 06:12:00,64.9,62.8,29.84,SSW,202,4.0,7.0,93,0.00,,---,0.00,VWS V13.01,2013-06-12 10:12:00,
2013-06-12 06:17:00,65.0,62.9,29.84,SSW,210,3.0,7.0,93,0.00,,---,0.00,VWS V13.01,2013-06-12 10:17:00,
2013-06-12 06:22:00,65.1,62.7,29.85,SSW,197,3.0,7.0,92,0.00,,---,0.00,VWS V13.01,2013-06-12 10:22:00,
2013-06-12 06:27:00,65.1,62.7,29.85,SSW,207,3.0,7.0,92,0.00,,---,0.00,VWS V13.01,2013-06-12 10:27:00,
2013-06-12 06:32:00,65.2,62.8,29.85,SW,222,3.0,6.0,92,0.00,,---,0.00,VWS V13.01,2013-06-12 10:32:00,
2013-06-12 06:37:00,65.3,62.9,29.85,SSW,208,4.0,6.0,92,0.00,,---,0.00,VWS V13.01,2013-06-12 10:37:00,
2013-06-12 06:42:00,65.4,63.0,29.86,SSW,204,3.0,6.0,92,0.00,,---,0.00,VWS V13.01,2013-06-12 10:42:00,
2013-06-12 06:47:00,65.5,63.1,29.85,SSW,199,3.0,6.0,92,0.00,,---,0.00,VWS V13.01,2013-06-12 10:47:00,
2013-06-12 06:52:00,65.6,63.2,29.85,SSW,200,5.0,6.0,92,0.00,,---,0.00,VWS V13.01,2013-06-12 10:52:00,
2013-06-12 06:57:00,65.8,63.4,29.86,South,182,3.0,6.0,92,0.00,,---,0.00,VWS V13.01,2013-06-12 10:57:00,
2013-06-12 07:02:00,66.0,63.3,29.86,SSE,167,1.0,5.0,91,0.00,,---,0.00,VWS V13.01,2013-06-12 11:02:00,
2013-06-12 07:07:00,66.2,63.5,29.86,SSW,211,5.0,7.0,91,0.00,,---,0.00,VWS V13.01,2013-06-12 11:07:00,
2013-06-12 07:12:00,66.5,63.8,29.86,South,182,6.0,7.0,91,0.00,,---,0.00,VWS V13.01,2013-06-12 11:12:00,
2013-06-12 07:17:00,66.7,63.7,29.86,SSW,198,2.0,7.0,90,0.00,,---,0.00,VWS V13.01,2013-06-12 11:17:00,
2013-06-12 07:22:00,66.9,63.9,29.87,SW,223,2.0,7.0,90,0.00,,---,0.00,VWS V13.01,2013-06-12 11:22:00,
2013-06-12 07:27:00,67.1,64.1,29.87,SSW,209,3.0,8.0,90,0.00,,---,0.00,VWS V13.01,2013-06-12 11:27:00,
2013-06-12 07:32:00,67.2,63.8,29.88,SSW,194,3.0,5.0,89,0.00,,---,0.00,VWS V13.01,2013-06-12 11:32:00,
2013-06-12 07:37:00,67.3,64.0,29.88,SSW,200,2.0,5.0,89,0.00,,---,0.00,VWS V13.01,2013-06-12 11:37:00,
2013-06-12 07:42:00,67.5,64.5,29.88,WSW,238,0.0,6.0,90,0.00,,---,0.00,VWS V13.01,2013-06-12 11:42:00,
2013-06-12 07:47:00,67.7,64.3,29.88,SSW,209,1.0,6.0,89,0.00,,---,0.00,VWS V13.01,2013-06-12 11:47:00,
2013-06-12 07:52:00,67.8,64.4,29.88,SSW,200,1.0,6.0,89,0.00,,---,0.00,VWS V13.01,2013-06-12 11:52:00,
2013-06-12 07:57:00,68.1,64.4,29.88,SW,225,2.0,6.0,88,0.00,,---,0.00,VWS V13.01,2013-06-12 11:57:00,
2013-06-12 08:02:00,68.3,64.6,29.89,West,280,2.0,5.0,88,0.00,,---,0.00,VWS V13.01,2013-06-12 12:02:00,
2013-06-12 08:07:00,68.5,64.8,29.88,SW,227,3.0,5.0,88,0.00,,---,0.00,VWS V13.01,2013-06-12 12:07:00,
2013-06-12 08:12:00,68.6,64.6,29.88,SW,232,1.0,5.0,87,0.00,,---,0.00,VWS V13.01,2013-06-12 12:12:00,
2013-06-12 08:17:00,68.8,65.1,29.88,SW,218,2.0,5.0,88,0.00,,---,0.00,VWS V13.01,2013-06-12 12:17:00,
2013-06-12 08:22:00,69.1,65.1,29.89,WSW,249,0.0,5.0,87,0.00,,---,0.00,VWS V13.01,2013-06-12 12:22:00,
2013-06-12 08:27:00,69.4,65.4,29.89,SW,230,3.0,5.0,87,0.00,,---,0.00,VWS V13.01,2013-06-12 12:27:00,
2013-06-12 08:32:00,69.7,65.3,29.88,SSW,196,3.0,7.0,86,0.00,,---,0.00,VWS V13.01,2013-06-12 12:32:00,
2013-06-12 08:37:00,70.1,65.4,29.88,SSW,211,3.0,8.0,85,0.00,,---,0.00,VWS V13.01,2013-06-12 12:37:00,
2013-06-12 08:42:00,70.6,65.9,29.88,SSW,202,3.0,8.0,85,0.00,,---,0.00,VWS V13.01,2013-06-12 12:42:00,
2013-06-12 08:47:00,70.9,65.8,29.88,South,171,2.0,8.0,84,0.00,,---,0.00,VWS V13.01,2013-06-12 12:47:00,
2013-06-12 08:52:00,71.3,65.9,29.88,SW,217,5.0,8.0,83,0.00,,---,0.00,VWS V13.01,2013-06-12 12:52:00,
2013-06-12 08:57:00,71.5,66.1,29.88,SSW,205,1.0,8.0,83,0.00,,---,0.00,VWS V13.01,2013-06-12 12:57:00,
2013-06-12 09:02:00,71.7,65.9,29.88,SSW,202,4.0,7.0,82,0.00,,---,0.00,VWS V13.01,2013-06-12 13:02:00,
2013-06-12 09:07:00,71.8,66.4,29.88,SW,236,1.0,7.0,83,0.00,,---,0.00,VWS V13.01,2013-06-12 13:07:00,
2013-06-12 09:12:00,71.9,66.1,29.88,SW,214,4.0,7.0,82,0.00,,---,0.00,VWS V13.01,2013-06-12 13:12:00,
2013-06-12 09:17:00,71.9,66.1,29.87,WSW,242,0.0,7.0,82,0.00,,---,0.00,VWS V13.01,2013-06-12 13:17:00,
2013-06-12 09:22:00,72.1,66.3,29.87,SW,220,3.0,7.0,82,0.00,,---,0.00,VWS V13.01,2013-06-12 13:22:00,
2013-06-12 09:27:00,72.3,66.5,29.88,South,191,1.0,7.0,82,0.00,,---,0.00,VWS V13.01,2013-06-12 13:27:00,
2013-06-12 09:32:00,72.6,66.4,29.87,SW,222,4.0,5.0,81,0.00,,---,0.00,VWS V13.01,2013-06-12 13:32:00,
2013-06-12 09:37:00,72.9,66.4,29.88,NW,325,5.0,7.0,80,0.00,,---,0.00,VWS V13.01,2013-06-12 13:37:00,
2013-06-12 09:42:00,72.9,66.4,29.87,WSW,240,1.0,8.0,80,0.00,,---,0.00,VWS V13.01,2013-06-12 13:42:00,
2013-06-12 09:47:00,73.1,66.2,29.87,SW,221,3.0,8.0,79,0.00,,---,0.00,VWS V13.01,2013-06-12 13:47:00,
2013-06-12 09:52:00,73.2,66.7,29.86,SW,230,7.0,8.0,80,0.00,,---,0.00,VWS V13.01,2013-06-12 13:52:00,
2013-06-12 09:57:00,73.4,66.5,29.86,SW,220,4.0,8.0,79,0.00,,---,0.00,VWS V13.01,2013-06-12 13:57:00,
2013-06-12 10:02:00,73.7,67.2,29.86,SW,227,2.0,5.0,80,0.00,,---,0.00,VWS V13.01,2013-06-12 14:02:00,
2013-06-12 10:07:00,74.0,67.1,29.86,WSW,250,0.0,7.0,79,0.00,,---,0.00,VWS V13.01,2013-06-12 14:07:00,
2013-06-12 10:12:00,74.2,66.9,29.85,SW,224,4.0,7.0,78,0.00,,---,0.00,VWS V13.01,2013-06-12 14:12:00,
2013-06-12 10:17:00,74.4,67.1,29.85,SSW,212,5.0,7.0,78,0.00,,---,0.00,VWS V13.01,2013-06-12 14:17:00,
2013-06-12 10:22:00,74.6,67.3,29.85,SW,227,2.0,7.0,78,0.00,,---,0.00,VWS V13.01,2013-06-12 14:22:00,
2013-06-12 10:27:00,74.8,67.5,29.86,WSW,237,3.0,7.0,78,0.00,,---,0.00,VWS V13.01,2013-06-12 14:27:00,
2013-06-12 10:32:00,74.8,67.1,29.85,SW,229,2.0,6.0,77,0.00,,---,0.00,VWS V13.01,2013-06-12 14:32:00,
2013-06-12 10:37:00,74.9,67.2,29.85,SSW,211,3.0,6.0,77,0.00,,---,0.00,VWS V13.01,2013-06-12 14:37:00,
2013-06-12 10:42:00,75.0,67.3,29.85,WSW,257,3.0,6.0,77,0.00,,---,0.00,VWS V13.01,2013-06-12 14:42:00,
2013-06-12 10:47:00,75.1,67.4,29.86,NW,305,1.0,6.0,77,0.00,,---,0.00,VWS V13.01,2013-06-12 14:47:00,
2013-06-12 10:52:00,75.2,67.9,29.86,WSW,258,1.0,6.0,78,0.00,,---,0.00,VWS V13.01,2013-06-12 14:52:00,
2013-06-12 10:57:00,75.8,68.1,29.86,West,265,2.0,6.0,77,0.00,,---,0.00,VWS V13.01,2013-06-12 14:57:00,
2013-06-12 11:02:00,76.6,67.7,29.86,West,262,1.0,8.0,74,0.00,,---,0.00,VWS V13.01,2013-06-12 15:02:00,
2013-06-12 11:07:00,77.2,68.3,29.86,West,272,3.0,8.0,74,0.00,,---,0.00,VWS V13.01,2013-06-12 15:07:00,
2013-06-12 11:12:00,77.8,67.7,29.86,West,271,2.0,8.0,71,0.00,,---,0.00,VWS V13.01,2013-06-12 15:12:00,
2013-06-12 11:17:00,78.1,68.3,29.86,WNW,283,6.0,8.0,72,0.00,,---,0.00,VWS V13.01,2013-06-12 15:17:00,
2013-06-12 11:22:00,78.4,68.2,29.85,West,266,2.0,10.0,71,0.00,,---,0.00,VWS V13.01,2013-06-12 15:22:00,
2013-06-12 11:27:00,78.5,67.5,29.86,WSW,238,6.0,10.0,69,0.00,,---,0.00,VWS V13.01,2013-06-12 15:27:00,
2013-06-12 11:32:00,78.5,67.9,29.86,WNW,284,2.0,4.0,70,0.00,,---,0.00,VWS V13.01,2013-06-12 15:32:00,
2013-06-12 11:37:00,78.5,67.5,29.86,SW,232,5.0,7.0,69,0.00,,---,0.00,VWS V13.01,2013-06-12 15:37:00,
2013-06-12 11:42:00,78.4,68.2,29.86,SW,234,3.0,10.0,71,0.00,,---,0.00,VWS V13.01,2013-06-12 15:42:00,
2013-06-12 11:47:00,78.8,67.8,29.86,WNW,290,2.0,10.0,69,0.00,,---,0.00,VWS V13.01,2013-06-12 15:47:00,
2013-06-12 11:52:00,79.3,67.8,29.87,SW,234,5.0,10.0,68,0.00,,---,0.00,VWS V13.01,2013-06-12 15:52:00,
2013-06-12 11:57:00,79.6,68.1,29.87,WSW,256,3.0,10.0,68,0.00,,---,0.00,VWS V13.01,2013-06-12 15:57:00,
2013-06-12 12:02:00,79.7,67.3,29.87,West,265,3.0,9.0,66,0.00,,---,0.00,VWS V13.01,2013-06-12 16:02:00,
2013-06-12 12:07:00,79.9,68.8,29.87,West,275,8.0,12.0,69,0.00,,---,0.00,VWS V13.01,2013-06-12 16:07:00,
2013-06-12 12:12:00,79.9,68.0,29.88,SW,236,4.0,12.0,67,0.00,,---,0.00,VWS V13.01,2013-06-12 16:12:00,
2013-06-12 12:17:00,80.4,68.9,29.87,NW,313,1.0,12.0,68,0.00,,---,0.00,VWS V13.01,2013-06-12 16:17:00,
2013-06-12 12:22:00,80.7,67.4,29.87,WNW,286,3.0,12.0,64,0.00,,---,0.00,VWS V13.01,2013-06-12 16:22:00,
2013-06-12 12:27:00,80.6,67.3,29.87,WSW,245,4.0,12.0,64,0.00,,---,0.00,VWS V13.01,2013-06-12 16:27:00,
2013-06-12 12:32:00,80.5,67.2,29.87,West,270,5.0,11.0,64,0.00,,---,0.00,VWS V13.01,2013-06-12 16:32:00,
2013-06-12 12:37:00,80.7,67.4,29.86,West,273,4.0,11.0,64,0.00,,---,0.00,VWS V13.01,2013-06-12 16:37:00,
2013-06-12 12:42:00,81.1,67.8,29.86,WSW,258,2.0,11.0,64,0.00,,---,0.00,VWS V13.01,2013-06-12 16:42:00,
2013-06-12 12:47:00,81.5,68.6,29.86,WNW,292,3.0,11.0,65,0.00,,---,0.00,VWS V13.01,2013-06-12 16:47:00,
2013-06-12 12:52:00,81.5,67.2,29.86,West,277,6.0,12.0,62,0.00,,---,0.00,VWS V13.01,2013-06-12 16:52:00,
2013-06-12 12:57:00,81.4,68.1,29.86,West,281,6.0,12.0,64,0.00,,---,0.00,VWS V13.01,2013-06-12 16:57:00,
2013-06-12 13:02:00,81.4,67.1,29.86,NW,315,4.0,6.0,62,0.00,,---,0.00,VWS V13.01,2013-06-12 17:02:00,
2013-06-12 13:07:00,81.5,67.2,29.86,WNW,288,7.0,9.0,62,0.00,,---,0.00,VWS V13.01,2013-06-12 17:07:00,
2013-06-12 13:12:00,81.4,66.7,29.86,WNW,292,11.0,11.0,61,0.00,,---,0.00,VWS V13.01,2013-06-12 17:12:00,
2013-06-12 13:17:00,81.0,66.3,29.86,WNW,302,3.0,11.0,61,0.00,,---,0.00,VWS V13.01,2013-06-12 17:17:00,
2013-06-12 13:22:00,81.0,66.8,29.86,WNW,299,8.0,11.0,62,0.00,,---,0.00,VWS V13.01,2013-06-12 17:22:00,
2013-06-12 13:27:00,81.4,66.7,29.85,WSW,258,5.0,14.0,61,0.00,,---,0.00,VWS V13.01,2013-06-12 17:27:00,
2013-06-12 13:32:00,81.4,67.1,29.85,WSW,239,8.0,10.0,62,0.00,,---,0.00,VWS V13.01,2013-06-12 17:32:00,
2013-06-12 13:37:00,81.8,67.1,29.85,West,281,5.0,10.0,61,0.00,,---,0.00,VWS V13.01,2013-06-12 17:37:00,
2013-06-12 13:42:00,82.3,66.6,29.84,NNE,13,6.0,11.0,59,0.00,,---,0.00,VWS V13.01,2013-06-12 17:42:00,
2013-06-12 13:47:00,82.6,66.8,29.84,WNW,286,2.0,11.0,59,0.00,,---,0.00,VWS V13.01,2013-06-12 17:47:00,
2013-06-12 13:52:00,82.6,65.8,29.85,West,263,10.0,12.0,57,0.00,,---,0.00,VWS V13.01,2013-06-12 17:52:00,
2013-06-12 13:57:00,82.2,66.0,29.85,WNW,290,4.0,12.0,58,0.00,,---,0.00,VWS V13.01,2013-06-12 17:57:00,
2013-06-12 14:02:00,81.9,65.2,29.85,WSW,252,2.0,10.0,57,0.00,,---,0.00,VWS V13.01,2013-06-12 18:02:00,
2013-06-12 14:07:00,81.7,65.5,29.85,WNW,286,0.0,10.0,58,0.00,,---,0.00,VWS V13.01,2013-06-12 18:07:00,
2013-06-12 14:12:00,81.5,65.3,29.85,NW,323,3.0,10.0,58,0.00,,---,0.00,VWS V13.01,2013-06-12 18:12:00,
2013-06-12 14:17:00,81.7,65.0,29.85,SW,221,7.0,10.0,57,0.00,,---,0.00,VWS V13.01,2013-06-12 18:17:00,
2013-06-12 14:22:00,82.2,65.5,29.85,SW,232,6.0,12.0,57,0.00,,---,0.00,VWS V13.01,2013-06-12 18:22:00,
2013-06-12 14:27:00,82.7,66.4,29.85,West,272,3.0,12.0,58,0.00,,---,0.00,VWS V13.01,2013-06-12 18:27:00,
2013-06-12 14:32:00,82.8,66.0,29.85,NNW,340,4.0,8.0,57,0.00,,---,0.00,VWS V13.01,2013-06-12 18:32:00,
2013-06-12 14:37:00,82.8,66.0,29.85,WSW,240,7.0,9.0,57,0.00,,---,0.00,VWS V13.01,2013-06-12 18:37:00,
2013-06-12 14:42:00,82.4,64.6,29.85,NW,309,5.0,9.0,55,0.00,,---,0.00,VWS V13.01,2013-06-12 18:42:00,
2013-06-12 14:47:00,82.0,64.3,29.84,WNW,293,1.0,9.0,55,0.00,,---,0.00,VWS V13.01,2013-06-12 18:47:00,
2013-06-12 14:52:00,81.8,64.6,29.84,North,355,5.0,9.0,56,0.00,,---,0.00,VWS V13.01,2013-06-12 18:52:00,
2013-06-12 14:57:00,81.5,64.8,29.85,West,265,8.0,9.0,57,0.00,,---,0.00,VWS V13.01,2013-06-12 18:57:00,
2013-06-12 15:02:00,81.2,64.5,29.84,West,273,6.0,9.0,57,0.00,,---,0.00,VWS V13.01,2013-06-12 19:02:00,
2013-06-12 15:07:00,80.9,64.2,29.83,WSW,254,1.0,9.0,57,0.00,,---,0.00,VWS V13.01,2013-06-12 19:07:00,
2013-06-12 15:12:00,80.9,64.8,29.83,West,281,3.0,9.0,58,0.00,,---,0.00,VWS V13.01,2013-06-12 19:12:00,
2013-06-12 15:17:00,80.9,64.2,29.83,WSW,238,4.0,9.0,57,0.00,,---,0.00,VWS V13.01,2013-06-12 19:17:00,
2013-06-12 15:22:00,81.3,65.1,29.82,WSW,251,3.0,9.0,58,0.00,,---,0.00,VWS V13.01,2013-06-12 19:22:00,
2013-06-12 15:27:00,81.8,65.6,29.81,SW,226,5.0,9.0,58,0.00,,---,0.00,VWS V13.01,2013-06-12 19:27:00,
2013-06-12 15:32:00,81.9,64.7,29.81,SW,233,0.0,1.0,56,0.00,,---,0.00,VWS V13.01,2013-06-12 19:32:00,
2013-06-12 15:37:00,82.0,65.8,29.82,SW,234,2.0,7.0,58,0.00,,---,0.00,VWS V13.01,2013-06-12 19:37:00,
2013-06-12 15:42:00,82.0,65.8,29.81,West,259,3.0,8.0,58,0.00,,---,0.00,VWS V13.01,2013-06-12 19:42:00,
2013-06-12 15:47:00,81.6,66.4,29.82,West,273,6.0,9.0,60,0.00,,---,0.00,VWS V13.01,2013-06-12 19:47:00,
2013-06-12 15:52:00,81.1,66.4,29.81,SW,215,6.0,9.0,61,0.00,,---,0.00,VWS V13.01,2013-06-12 19:52:00,
2013-06-12 15:57:00,80.8,66.6,29.80,SW,233,4.0,9.0,62,0.00,,---,0.00,VWS V13.01,2013-06-12 19:57:00,
2013-06-12 16:02:00,80.7,66.0,29.80,SW,224,2.0,4.0,61,0.00,,---,0.00,VWS V13.01,2013-06-12 20:02:00,
2013-06-12 16:07:00,80.7,66.5,29.79,West,264,0.0,6.0,62,0.00,,---,0.00,VWS V13.01,2013-06-12 20:07:00,
2013-06-12 16:12:00,80.9,65.7,29.79,SW,236,5.0,9.0,60,0.00,,---,0.00,VWS V13.01,2013-06-12 20:12:00,
2013-06-12 16:17:00,81.2,66.0,29.79,SW,234,6.0,11.0,60,0.00,,---,0.00,VWS V13.01,2013-06-12 20:17:00,
2013-06-12 16:22:00,81.7,66.5,29.80,WSW,246,9.0,11.0,60,0.00,,---,0.00,VWS V13.01,2013-06-12 20:22:00,
2013-06-12 16:27:00,81.6,65.4,29.79,SW,221,6.0,12.0,58,0.00,,---,0.00,VWS V13.01,2013-06-12 20:27:00,
2013-06-12 16:32:00,81.5,65.3,29.80,SW,232,5.0,11.0,58,0.00,,---,0.00,VWS V13.01,2013-06-12 20:32:00,
2013-06-12 16:37:00,81.2,66.5,29.79,SSW,200,4.0,11.0,61,0.00,,---,0.00,VWS V13.01,2013-06-12 20:37:00,
2013-06-12 16:42:00,81.0,67.2,29.79,WSW,247,8.0,11.0,63,0.00,,---,0.00,VWS V13.01,2013-06-12 20:42:00,
2013-06-12 16:47:00,80.9,67.1,29.79,WSW,237,7.0,11.0,63,0.00,,---,0.00,VWS V13.01,2013-06-12 20:47:00,
2013-06-12 16:52:00,80.7,66.9,29.79,WSW,240,8.0,11.0,63,0.00,,---,0.00,VWS V13.01,2013-06-12 20:52:00,
2013-06-12 16:57:00,80.5,67.7,29.79,WSW,241,5.0,13.0,65,0.00,,---,0.00,VWS V13.01,2013-06-12 20:57:00,
2013-06-12 17:02:00,80.3,68.3,29.81,SW,236,11.0,12.0,67,0.00,,---,0.00,VWS V13.01,2013-06-12 21:02:00,
2013-06-12 17:07:00,80.0,68.1,29.82,West,269,6.0,14.0,67,0.00,,---,0.00,VWS V13.01,2013-06-12 21:07:00,
2013-06-12 17:12:00,79.7,68.2,29.82,West,276,2.0,14.0,68,0.00,,---,0.00,VWS V13.01,2013-06-12 21:12:00,
2013-06-12 17:17:00,79.6,68.1,29.81,WSW,257,4.0,14.0,68,0.00,,---,0.00,VWS V13.01,2013-06-12 21:17:00,
2013-06-12 17:22:00,79.4,67.9,29.81,West,276,1.0,14.0,68,0.00,,---,0.00,VWS V13.01,2013-06-12 21:22:00,
2013-06-12 17:27:00,79.4,67.9,29.82,West,269,1.0,14.0,68,0.00,,---,0.00,VWS V13.01,2013-06-12 21:27:00,
2013-06-12 17:32:00,79.3,67.8,29.82,West,264,2.0,7.0,68,0.00,,---,0.00,VWS V13.01,2013-06-12 21:32:00,
2013-06-12 17:37:00,79.4,67.9,29.82,NW,316,2.0,7.0,68,0.00,,---,0.00,VWS V13.01,2013-06-12 21:37:00,
2013-06-12 17:42:00,79.4,67.9,29.82,West,280,1.0,9.0,68,0.00,,---,0.00,VWS V13.01,2013-06-12 21:42:00,
2013-06-12 17:47:00,79.3,67.8,29.82,WSW,258,1.0,9.0,68,0.00,,---,0.00,VWS V13.01,2013-06-12 21:47:00,
2013-06-12 17:52:00,79.3,67.8,29.82,West,279,5.0,9.0,68,0.00,,---,0.00,VWS V13.01,2013-06-12 21:52:00,
2013-06-12 17:57:00,79.3,67.8,29.81,WSW,248,4.0,9.0,68,0.00,,---,0.00,VWS V13.01,2013-06-12 21:57:00,
2013-06-12 18:02:00,79.3,67.4,29.81,WNW,297,0.0,5.0,67,0.00,,---,0.00,VWS V13.01,2013-06-12 22:02:00,
2013-06-12 18:07:00,79.3,68.3,29.79,SSW,198,0.0,5.0,69,0.00,,---,0.00,VWS V13.01,2013-06-12 22:07:00,
2013-06-12 18:12:00,79.3,67.4,29.79,SSW,192,0.0,5.0,67,0.00,,---,0.00,VWS V13.01,2013-06-12 22:12:00,
2013-06-12 18:17:00,79.4,68.3,29.80,WSW,252,1.0,5.0,69,0.00,,---,0.00,VWS V13.01,2013-06-12 22:17:00,
2013-06-12 18:22:00,79.3,67.8,29.80,SW,230,4.0,5.0,68,0.00,,---,0.00,VWS V13.01,2013-06-12 22:22:00,
2013-06-12 18:27:00,79.3,68.3,29.80,SW,231,1.0,5.0,69,0.00,,---,0.00,VWS V13.01,2013-06-12 22:27:00,
2013-06-12 18:32:00,79.3,68.3,29.80,SW,225,2.0,5.0,69,0.00,,---,0.00,VWS V13.01,2013-06-12 22:32:00,
2013-06-12 18:37:00,79.3,68.3,29.79,West,263,0.0,5.0,69,0.00,,---,0.00,VWS V13.01,2013-06-12 22:37:00,
2013-06-12 18:42:00,79.4,68.3,29.79,SW,228,4.0,5.0,69,0.00,,---,0.00,VWS V13.01,2013-06-12 22:42:00,
2013-06-12 18:47:00,79.3,68.3,29.79,SSW,213,2.0,5.0,69,0.00,,---,0.00,VWS V13.01,2013-06-12 22:47:00,
2013-06-12 18:52:00,79.2,68.6,29.80,WSW,238,4.0,6.0,70,0.00,,---,0.00,VWS V13.01,2013-06-12 22:52:00,
2013-06-12 18:57:00,79.1,68.9,29.81,SW,234,1.0,6.0,71,0.00,,---,0.00,VWS V13.01,2013-06-12 22:57:00,
2013-06-12 19:02:00,79.0,68.4,29.81,WSW,249,2.0,5.0,70,0.00,,---,0.00,VWS V13.01,2013-06-12 23:02:00,
2013-06-12 19:07:00,78.9,68.7,29.81,WSW,237,2.0,6.0,71,0.00,,---,0.00,VWS V13.01,2013-06-12 23:07:00,
2013-06-12 19:12:00,78.8,69.0,29.80,SW,217,4.0,6.0,72,0.00,,---,0.00,VWS V13.01,2013-06-12 23:12:00,
2013-06-12 19:17:00,78.8,69.0,29.79,SW,219,1.0,7.0,72,0.00,,---,0.00,VWS V13.01,2013-06-12 23:17:00,
2013-06-12 19:22:00,78.7,68.9,29.79,SW,217,0.0,7.0,72,0.00,,---,0.00,VWS V13.01,2013-06-12 23:22:00,
2013-06-12 19:27:00,78.7,68.9,29.80,West,260,0.0,7.0,72,0.00,,---,0.00,VWS V13.01,2013-06-12 23:27:00,
2013-06-12 19:32:00,78.6,68.8,29.79,SW,231,2.0,4.0,72,0.00,,---,0.00,VWS V13.01,2013-06-12 23:32:00,
2013-06-12 19:37:00,78.6,68.8,29.80,SW,225,2.0,5.0,72,0.00,,---,0.00,VWS V13.01,2013-06-12 23:37:00,
2013-06-12 19:42:00,78.6,69.2,29.79,SSW,209,4.0,5.0,73,0.00,,---,0.00,VWS V13.01,2013-06-12 23:42:00,
2013-06-12 19:47:00,78.5,69.1,29.79,SSW,195,3.0,6.0,73,0.00,,---,0.00,VWS V13.01,2013-06-12 23:47:00,
2013-06-12 19:52:00,78.4,69.0,29.78,SSW,206,3.0,6.0,73,0.00,,---,0.00,VWS V13.01,2013-06-12 23:52:00,
2013-06-12 19:57:00,78.4,69.0,29.77,SSW,207,1.0,6.0,73,0.00,,---,0.00,VWS V13.01,2013-06-12 23:57:00,
2013-06-12 20:02:00,78.3,69.3,29.77,SSW,194,1.0,1.0,74,0.00,,---,0.00,VWS V13.01,2013-06-13 00:02:00,
2013-06-12 20:07:00,78.1,69.5,29.78,South,186,0.0,3.0,75,0.00,,---,0.00,VWS V13.01,2013-06-13 00:07:00,
2013-06-12 20:12:00,77.9,69.7,29.77,South,176,3.0,3.0,76,0.00,,---,0.00,VWS V13.01,2013-06-13 00:12:00,
2013-06-12 20:17:00,77.7,69.5,29.78,South,175,0.0,3.0,76,0.00,,---,0.00,VWS V13.01,2013-06-13 00:17:00,
2013-06-12 20:22:00,77.5,69.7,29.78,South,175,0.0,3.0,77,0.00,,---,0.00,VWS V13.01,2013-06-13 00:22:00,
2013-06-12 20:27:00,77.4,69.6,29.79,South,175,0.0,3.0,77,0.00,,---,0.00,VWS V13.01,2013-06-13 00:27:00,
2013-06-12 20:32:00,77.2,69.8,29.80,South,175,0.0,0.0,78,0.00,,---,0.00,VWS V13.01,2013-06-13 00:32:00,
2013-06-12 20:37:00,77.1,69.7,29.80,South,175,0.0,1.0,78,0.00,,---,0.00,VWS V13.01,2013-06-13 00:37:00,
2013-06-12 20:42:00,76.9,69.5,29.80,South,176,0.0,1.0,78,0.00,,---,0.00,VWS V13.01,2013-06-13 00:42:00,
2013-06-12 20:47:00,76.7,69.7,29.79,South,187,0.0,1.0,79,0.00,,---,0.00,VWS V13.01,2013-06-13 00:47:00,
2013-06-12 20:52:00,76.5,69.9,29.79,South,187,0.0,1.0,80,0.00,,---,0.00,VWS V13.01,2013-06-13 00:52:00,
2013-06-12 20:57:00,76.3,69.7,29.80,South,187,0.0,1.0,80,0.00,,---,0.00,VWS V13.01,2013-06-13 00:57:00,
2013-06-12 21:02:00,76.0,69.8,29.79,South,187,0.0,1.0,81,0.00,,---,0.00,VWS V13.01,2013-06-13 01:02:00,
2013-06-12 21:07:00,75.8,69.6,29.79,South,187,0.0,1.0,81,0.00,,---,0.00,VWS V13.01,2013-06-13 01:07:00,
2013-06-12 21:12:00,75.5,69.3,29.78,South,187,0.0,2.0,81,0.00,,---,0.00,VWS V13.01,2013-06-13 01:12:00,
2013-06-12 21:17:00,75.2,69.3,29.78,South,176,0.0,2.0,82,0.00,,---,0.00,VWS V13.01,2013-06-13 01:17:00,
2013-06-12 21:22:00,75.0,69.1,29.78,South,176,2.0,2.0,82,0.00,,---,0.00,VWS V13.01,2013-06-13 01:22:00,
2013-06-12 21:27:00,74.8,68.9,29.78,South,176,0.0,2.0,82,0.00,,---,0.00,VWS V13.01,2013-06-13 01:27:00,
2013-06-12 21:32:00,74.5,68.7,29.78,South,176,0.0,1.0,82,0.00,,---,0.00,VWS V13.01,2013-06-13 01:32:00,
2013-06-12 21:37:00,74.4,68.9,29.78,South,176,0.0,1.0,83,0.00,,---,0.00,VWS V13.01,2013-06-13 01:37:00,
2013-06-12 21:42:00,74.2,68.7,29.78,South,176,1.0,1.0,83,0.00,,---,0.00,VWS V13.01,2013-06-13 01:42:00,
2013-06-12 21:47:00,74.1,68.6,29.78,South,176,0.0,1.0,83,0.00,,---,0.00,VWS V13.01,2013-06-13 01:47:00,
2013-06-12 21:52:00,73.9,68.4,29.78,South,176,0.0,1.0,83,0.00,,---,0.00,VWS V13.01,2013-06-13 01:52:00,
2013-06-12 21:57:00,73.9,68.8,29.79,South,176,0.0,1.0,84,0.00,,---,0.00,VWS V13.01,2013-06-13 01:57:00,
2013-06-12 22:02:00,73.8,68.7,29.78,South,176,0.0,0.0,84,0.00,,---,0.00,VWS V13.01,2013-06-13 02:02:00,
2013-06-12 22:07:00,73.7,68.6,29.78,South,176,0.0,1.0,84,0.00,,---,0.00,VWS V13.01,2013-06-13 02:07:00,
2013-06-12 22:12:00,73.6,68.5,29.78,South,176,1.0,1.0,84,0.00,,---,0.00,VWS V13.01,2013-06-13 02:12:00,
2013-06-12 22:17:00,73.5,68.4,29.78,South,176,0.0,1.0,84,0.00,,---,0.00,VWS V13.01,2013-06-13 02:17:00,
2013-06-12 22:22:00,73.4,68.6,29.78,South,176,0.0,1.0,85,0.00,,---,0.00,VWS V13.01,2013-06-13 02:22:00,
2013-06-12 22:27:00,73.3,68.5,29.77,South,176,0.0,1.0,85,0.00,,---,0.00,VWS V13.01,2013-06-13 02:27:00,
2013-06-12 22:32:00,73.1,68.3,29.77,South,176,0.0,2.0,85,0.00,,---,0.00,VWS V13.01,2013-06-13 02:32:00,
2013-06-12 22:37:00,73.0,68.2,29.76,East,92,1.0,3.0,85,0.00,,---,0.00,VWS V13.01,2013-06-13 02:37:00,
2013-06-12 22:42:00,73.0,68.6,29.75,East,87,1.0,3.0,86,0.00,,---,0.00,VWS V13.01,2013-06-13 02:42:00,
2013-06-12 22:47:00,73.1,68.7,29.75,East,84,1.0,3.0,86,0.00,,---,0.00,VWS V13.01,2013-06-13 02:47:00,
2013-06-12 22:52:00,73.1,68.7,29.75,East,84,0.0,3.0,86,0.00,,---,0.00,VWS V13.01,2013-06-13 02:52:00,
2013-06-12 22:57:00,73.1,68.7,29.75,East,84,0.0,3.0,86,0.00,,---,0.00,VWS V13.01,2013-06-13 02:57:00,
2013-06-12 23:02:00,73.1,68.7,29.75,ESE,118,0.0,1.0,86,0.00,,---,0.00,VWS V13.01,2013-06-13 03:02:00,
2013-06-12 23:07:00,72.9,68.5,29.75,South,190,0.0,1.0,86,0.00,,---,0.00,VWS V13.01,2013-06-13 03:07:00,
2013-06-12 23:12:00,72.9,68.5,29.75,South,190,0.0,1.0,86,0.00,,---,0.00,VWS V13.01,2013-06-13 03:12:00,
2013-06-12 23:17:00,72.8,68.7,29.75,South,190,0.0,1.0,87,0.00,,---,0.00,VWS V13.01,2013-06-13 03:17:00,
2013-06-12 23:22:00,72.7,68.6,29.75,South,190,0.0,1.0,87,0.00,,---,0.00,VWS V13.01,2013-06-13 03:22:00,
2013-06-12 23:27:00,72.6,68.5,29.74,South,190,0.0,1.0,87,0.00,,---,0.00,VWS V13.01,2013-06-13 03:27:00,
2013-06-12 23:32:00,72.5,68.4,29.73,South,190,0.0,0.0,87,0.00,,---,0.00,VWS V13.01,2013-06-13 03:32:00,
2013-06-12 23:37:00,72.4,68.3,29.73,South,190,0.0,0.0,87,0.00,,---,0.00,VWS V13.01,2013-06-13 03:37:00,
2013-06-12 23:42:00,72.3,68.6,29.72,South,190,0.0,0.0,88,0.00,,---,0.00,VWS V13.01,2013-06-13 03:42:00,
2013-06-12 23:47:00,72.3,68.6,29.72,South,190,0.0,0.0,88,0.00,,---,0.00,VWS V13.01,2013-06-13 03:47:00,
2013-06-12 23:52:00,72.2,68.4,29.72,South,190,0.0,0.0,88,0.00,,---,0.00,VWS V13.01,2013-06-13 03:52:00,
2013-06-12 23:57:00,72.2,68.4,29.72,South,190,0.0,0.0,88,0.00,,---,0.00,VWS V13.01,2013-06-13 03:57:00,